• In Romania
  • List of Countries
  • For 7 days
  • Water Temperature
  • Satellite Maps
  • Weather Map
  • Weather Widgets
  • user-avatar
    Login

    Hourly Weather Malanje

    Today, 16 August, Wednesday

    Time Temperature Precipitation Wind Pressure Humidity
    00:00 +21°C° 0 mm 2 mps 665 mmHg 42%
    01:00 +21°C° 0 mm 1 mps 665 mmHg 49%
    02:00 +20°C° 0 mm 1 mps 665 mmHg 56%
    03:00 +19°C° 0 mm 1 mps 665 mmHg 63%
    04:00 +19°C° 0 mm 1 mps 665 mmHg 70%
    05:00 +19°C° 0 mm 1 mps 665 mmHg 69%
    06:00 +19°C° 0 mm 1 mps 665 mmHg 68%
    07:00 +20°C° 0 mm 1 mps 666 mmHg 75%
    08:00 +23°C° 0 mm 1 mps 667 mmHg 59%
    09:00 +27°C° 0 mm 1 mps 667 mmHg 43%
    10:00 +31°C° 0 mm 1 mps 668 mmHg 26%
    11:00 +33°C° 0 mm 1 mps 668 mmHg 21%
    12:00 +35°C° 0 mm 1 mps 668 mmHg 16%
    13:00 +37°C° 0 mm 1 mps 667 mmHg 11%
    14:00 +36°C° 0 mm 1 mps 666 mmHg 11%
    15:00 +36°C° 0 mm 1 mps 666 mmHg 11%
    16:00 +36°C° 0 mm 2 mps 665 mmHg 10%
    17:00 +34°C° 0 mm 2 mps 665 mmHg 13%
    18:00 +31°C° 0 mm 2 mps 664 mmHg 16%
    19:00 +28°C° 0 mm 2 mps 664 mmHg 19%
    20:00 +27°C° 0 mm 2 mps 664 mmHg 27%
    21:00 +26°C° 0 mm 3 mps 664 mmHg 34%
    22:00 +25°C° 0 mm 3 mps 665 mmHg 42%
    23:00 +24°C° 0 mm 3 mps 664 mmHg 47%

    Tomorrow, 17 August, Thursday

    Time Temperature Precipitation Wind Pressure Humidity
    00:00 +21°C° 0 mm 3 mps 664 mmHg 53%
    01:00 +20°C° 0 mm 3 mps 664 mmHg 59%
    02:00 +20°C° 0 mm 3 mps 663 mmHg 65%
    03:00 +19°C° 0 mm 3 mps 663 mmHg 71%
    04:00 +18°C° 0 mm 3 mps 663 mmHg 77%
    05:00 +18°C° 0 mm 3 mps 663 mmHg 78%
    06:00 +17°C° 0 mm 3 mps 663 mmHg 79%
    07:00 +17°C° 0 mm 3 mps 664 mmHg 80%
    08:00 +21°C° 0 mm 2 mps 664 mmHg 65%
    09:00 +25°C° 0 mm 2 mps 665 mmHg 50%
    10:00 +28°C° 0 mm 2 mps 666 mmHg 35%
    11:00 +31°C° 0 mm 2 mps 666 mmHg 29%
    12:00 +34°C° 0 mm 2 mps 666 mmHg 24%
    13:00 +36°C° 0 mm 2 mps 665 mmHg 18%
    14:00 +36°C° 0 mm 2 mps 665 mmHg 17%
    15:00 +36°C° 0 mm 2 mps 664 mmHg 17%
    16:00 +35°C° 0 mm 2 mps 664 mmHg 16%
    17:00 +33°C° 0 mm 3 mps 664 mmHg 22%
    18:00 +30°C° 0 mm 4 mps 663 mmHg 27%
    19:00 +27°C° 0 mm 4 mps 663 mmHg 32%
    20:00 +26°C° 0 mm 4 mps 664 mmHg 37%
    21:00 +25°C° 0 mm 4 mps 664 mmHg 42%
    22:00 +22°C° 0 mm 4 mps 664 mmHg 47%
    23:00 +21°C° 0 mm 4 mps 664 mmHg 56%

    Day after tomorrow, 18 August, Friday

    Time Temperature Precipitation Wind Pressure Humidity
    00:00 +20°C° 0 mm 4 mps 664 mmHg 64%
    01:00 +19°C° 0 mm 4 mps 663 mmHg 72%
    02:00 +18°C° 0 mm 4 mps 663 mmHg 76%
    03:00 +17°C° 0 mm 4 mps 663 mmHg 79%
    04:00 +17°C° 0 mm 4 mps 663 mmHg 83%
    05:00 +17°C° 0 mm 3 mps 663 mmHg 82%
    06:00 +17°C° 0 mm 3 mps 664 mmHg 82%
    07:00 +17°C° 0 mm 2 mps 664 mmHg 81%
    08:00 +19°C° 0 mm 2 mps 665 mmHg 68%
    09:00 +23°C° 0 mm 2 mps 666 mmHg 55%
    10:00 +26°C° 0 mm 2 mps 667 mmHg 41%
    11:00 +29°C° 0 mm 2 mps 666 mmHg 34%
    12:00 +32°C° 0 mm 2 mps 666 mmHg 27%
    13:00 +35°C° 0 mm 1 mps 666 mmHg 20%
    14:00 +35°C° 0 mm 1 mps 665 mmHg 19%
    15:00 +35°C° 0 mm 1 mps 664 mmHg 18%
    16:00 +35°C° 0 mm 1 mps 664 mmHg 17%
    17:00 +32°C° 0 mm 2 mps 664 mmHg 20%
    18:00 +30°C° 0 mm 2 mps 664 mmHg 23%
    19:00 +28°C° 0 mm 2 mps 664 mmHg 26%
    20:00 +27°C° 0 mm 2 mps 664 mmHg 32%
    21:00 +25°C° 0 mm 2 mps 665 mmHg 38%
    22:00 +24°C° 0 mm 2 mps 665 mmHg 44%
    23:00 +22°C° 0 mm 3 mps 665 mmHg 49%

    19 August, Saturday

    Time Temperature Precipitation Wind Pressure Humidity
    00:00 +21°C° 0 mm 3 mps 664 mmHg 54%
    01:00 +20°C° 0 mm 3 mps 664 mmHg 58%
    02:00 +19°C° 0 mm 3 mps 664 mmHg 64%
    03:00 +18°C° 0 mm 3 mps 663 mmHg 70%
    04:00 +17°C° 0 mm 2 mps 663 mmHg 75%
    05:00 +18°C° 0 mm 2 mps 664 mmHg 76%
    06:00 +18°C° 0 mm 2 mps 664 mmHg 76%
    07:00 +19°C° 0 mm 1 mps 665 mmHg 77%
    08:00 +23°C° 0 mm 1 mps 666 mmHg 61%
    09:00 +27°C° 0 mm 1 mps 667 mmHg 45%
    10:00 +32°C° 0 mm 1 mps 669 mmHg 29%
    11:00 +34°C° 0 mm 1 mps 668 mmHg 25%
    12:00 +36°C° 0 mm 1 mps 668 mmHg 20%
    13:00 +40°C° 0 mm 1 mps 667 mmHg 16%
    14:00 +39°C° 0 mm 1 mps 667 mmHg 16%
    15:00 +37°C° 0 mm 1 mps 666 mmHg 17%
    16:00 +36°C° 0 mm 1 mps 665 mmHg 17%
    17:00 +34°C° 0 mm 1 mps 665 mmHg 19%
    18:00 +32°C° 0 mm 1 mps 665 mmHg 22%
    19:00 +31°C° 0 mm 2 mps 665 mmHg 24%
    20:00 +29°C° 0 mm 2 mps 666 mmHg 28%
    21:00 +28°C° 0 mm 2 mps 666 mmHg 33%
    22:00 +26°C° 0 mm 3 mps 666 mmHg 38%
    23:00 +25°C° 0 mm 3 mps 666 mmHg 44%

    20 August, Sunday

    Time Temperature Precipitation Wind Pressure Humidity
    00:00 +24°C° 0 mm 3 mps 665 mmHg 50%
    01:00 +21°C° 0 mm 3 mps 665 mmHg 56%
    02:00 +21°C° 0 mm 3 mps 665 mmHg 60%
    03:00 +20°C° 0 mm 3 mps 664 mmHg 65%
    04:00 +19°C° 0 mm 2 mps 664 mmHg 69%
    05:00 +19°C° 0 mm 2 mps 665 mmHg 70%
    06:00 +19°C° 0 mm 2 mps 665 mmHg 70%
    07:00 +20°C° 0 mm 1 mps 666 mmHg 71%
    08:00 +24°C° 0 mm 1 mps 667 mmHg 57%
    09:00 +28°C° 0 mm 1 mps 668 mmHg 43%
    10:00 +33°C° 0 mm 1 mps 669 mmHg 29%
    11:00 +35°C° 0 mm 1 mps 669 mmHg 25%
    12:00 +37°C° 0 mm 1 mps 668 mmHg 21%
    13:00 +40°C° 0 mm 1 mps 668 mmHg 17%
    14:00 +37°C° 0 mm 1 mps 667 mmHg 18%
    15:00 +36°C° 0 mm 1 mps 666 mmHg 19%
    16:00 +35°C° 0 mm 2 mps 666 mmHg 20%
    17:00 +34°C° 0 mm 2 mps 666 mmHg 22%
    18:00 +32°C° 0 mm 2 mps 666 mmHg 24%
    19:00 +31°C° 0 mm 2 mps 667 mmHg 26%
    20:00 +30°C° 0 mm 2 mps 667 mmHg 30%
    21:00 +28°C° 0 mm 2 mps 667 mmHg 35%
    22:00 +27°C° 0 mm 2 mps 667 mmHg 39%
    23:00 +26°C° 0.1 mm 2 mps 667 mmHg 45%

    21 August, Monday

    Time Temperature Precipitation Wind Pressure Humidity
    00:00 +24°C° 0.1 mm 2 mps 666 mmHg 50%
    01:00 +23°C° 0.1 mm 2 mps 666 mmHg 55%
    02:00 +21°C° 0 mm 2 mps 666 mmHg 60%
    03:00 +20°C° 0 mm 2 mps 665 mmHg 65%
    04:00 +19°C° 0 mm 2 mps 665 mmHg 70%
    05:00 +19°C° 0 mm 2 mps 665 mmHg 72%
    06:00 +19°C° 0 mm 2 mps 665 mmHg 73%
    07:00 +19°C° 0 mm 2 mps 665 mmHg 75%
    08:00 +23°C° 0 mm 2 mps 666 mmHg 62%
    09:00 +27°C° 0 mm 2 mps 667 mmHg 49%
    10:00 +30°C° 0 mm 2 mps 668 mmHg 35%
    11:00 +34°C° 0 mm 2 mps 667 mmHg 30%
    12:00 +36°C° 0 mm 1 mps 667 mmHg 25%
    13:00 +39°C° 0 mm 1 mps 667 mmHg 19%
    14:00 +37°C° 0 mm 1 mps 666 mmHg 21%
    15:00 +36°C° 0 mm 2 mps 665 mmHg 22%
    16:00 +35°C° 0 mm 2 mps 664 mmHg 24%
    17:00 +32°C° 0 mm 2 mps 664 mmHg 26%
    18:00 +31°C° 0 mm 2 mps 665 mmHg 29%
    19:00 +30°C° 0 mm 2 mps 665 mmHg 31%
    20:00 +28°C° 0 mm 2 mps 665 mmHg 35%
    21:00 +27°C° 0 mm 3 mps 665 mmHg 39%
    22:00 +26°C° 0 mm 3 mps 665 mmHg 43%
    23:00 +24°C° 0 mm 3 mps 664 mmHg 49%
    Show more